Location: Crescent
(42.8242°N, 73.7329°W)
Time: 08:26:19
(UTC+00:00)

Vanguard 1 Rocket - Pass Details

Date: 22 February 2026
Orbit: 653 x 4214 km, 34.3° (Epoch: 12 March)

Event Time Altitude Azimuth Distance (km) Brightness Sun altitude
Rises 00:53:40 0° 276° (W) 6,784 13.2 -26.2°
Reaches altitude 10° 00:59:26 10° 263° (W) 6,291 12.5 -27.2°
Maximum altitude 01:13:23 22° 223° (SW) 6,157 11.8 -29.7°
Drops below altitude 10° 01:29:56 10° 182° (S) 7,382 11.8 -32.6°
Sets 01:38:00 0° 169° (S) 8,212 12.0 -34.0°
